Location: Bonnesvalyn
(49.1218°N, 3.3177°E)
Time: 12:56:20
(UTC+00:00)

COSMO-SKYMED 1 - Pass Details

Date: 09 February 2023
Orbit: 621 x 623 km, 97.9° (Epoch: 22 March)

Event Time Altitude Azimuth Distance (km) Brightness Sun altitude
Rises 17:17:40 0° 21° (NNE) 2,918 5.6 -4.1°
Reaches altitude 10° 17:20:04 10° 31° (NNE) 2,006 4.7 -4.5°
Maximum altitude 17:24:00 32° 96° (E) 1,066 3.3 -5.1°
Drops below altitude 10° 17:27:55 10° 160° (SSE) 1,989 5.1 -5.7°
Sets 17:30:16 0° 171° (S) 2,890 6.1 -6.1°
